Sisseton, SD

10:04 AM CST on February 13, 2016 (GMT -0600)
Sisseton

Weather History for K8D3 - May, 2013

Change the Weather History Date:

Thursday, May 2, 2013

  Actual Average Record
Temperature  
Mean Temperature 36 °F 52 °F  
Max Temperature 47 °F 65 °F 92 °F (1955)
Min Temperature 25 °F 40 °F 22 °F (1967)
Degree Days  
Heating Degree Days 29 13  
Month to date heating degree days 56 26  
Since 1 July heating degree days 8816 7985  
Cooling Degree Days 0 0  
Month to date cooling degree days 0 0  
Year to date cooling degree days 0 1  
Moisture  
Dew Point 26 °F    
Average Humidity 69    
Maximum Humidity 92    
Minimum Humidity 45    
Precipitation  
Precipitation 0.00 in 0.09 in 0.78 in (1946)
Month to date precipitation 0.00 0.18  
Year to date precipitation 5.62 4.44  
Snow  
Snow 0.00 in - - ()
Month to date snowfall 0.0  
Since 1 July snowfall 59.3  
Snow Depth 0.00 in    
Sea Level Pressure  
Sea Level Pressure 30.64 in    
Wind  
Wind Speed 11 mph (North)    
Max Wind Speed 22 mph    
Max Gust Speed 29 mph    
T = Trace of Precipitation, MM = Missing Value Source: NWS Daily Summary

Daily Weather History Graph

Daily Weather History Graph

Search for Another Location

Airport or City:

Trip Planner

Search our weather history database for the weather conditions in past years. The results will help you decide how hot, cold, wet, or windy it might be!

Date:

Astronomy

May. 02, 2013 Rise Set
Actual Time 6:13 AM CDT 8:36 PM CDT
Civil Twilight 5:40 AM CDT 9:09 PM CDT
Nautical Twilight 4:59 AM CDT 9:51 PM CDT
Astronomical Twilight 4:13 AM CDT 10:38 PM CDT
Moon 2:24 AM CDT (5/2) 1:06 PM CDT (5/2)
Length of Visible Light 15h 29m
Length of Day
14h 23m
Waning Gibbous, 47% of the Moon is Illuminated
May 2
Waning Gibbous
May 9
New
May 17
First Quarter
May 24
Full
May 31
Last Quarter

Hourly Weather History & Observations

Time (CDT) Temp. Windchill Dew Point Humidity Pressure Visibility Wind Dir Wind Speed Gust Speed Precip Events Conditions
12:56 AM 28.9 °F 23.9 °F 26.1 °F 89% 30.63 in - NW 4.6 mph - N/A   Unknown
1:56 AM 30.0 °F 26.5 °F 26.1 °F 85% 30.65 in - NW 3.5 mph - N/A   Unknown
2:56 AM 28.9 °F 23.9 °F 26.1 °F 89% 30.65 in - NW 4.6 mph - N/A   Unknown
3:56 AM 28.0 °F 22.8 °F 25.0 °F 88% 30.65 in - NNW 4.6 mph - N/A   Unknown
4:56 AM 27.0 °F 21.6 °F 25.0 °F 92% 30.66 in - NW 4.6 mph - N/A   Unknown
5:56 AM 27.0 °F 21.6 °F 23.0 °F 85% 30.67 in - NNW 4.6 mph - N/A   Unknown
6:56 AM 28.0 °F 22.8 °F 25.0 °F 88% 30.70 in - NNW 4.6 mph - N/A   Unknown
7:56 AM 32.0 °F 24.8 °F 28.0 °F 85% 30.71 in - North 8.1 mph - N/A   Unknown
8:56 AM 35.1 °F 27.4 °F 27.0 °F 72% 30.72 in - NNE 10.4 mph - N/A   Unknown
9:56 AM 35.1 °F 26.9 °F 27.0 °F 72% 30.73 in - NNE 11.5 mph - N/A   Unknown
10:56 AM 36.0 °F 28.5 °F 27.0 °F 70% 30.73 in - NNE 10.4 mph - N/A   Unknown
11:56 AM 39.9 °F 31.8 °F 27.0 °F 60% 30.70 in - NNE 15.0 mph 20.7 mph N/A   Unknown
12:56 PM 42.1 °F 34.2 °F 25.0 °F 51% 30.68 in - North 16.1 mph 26.5 mph N/A   Unknown
1:56 PM 44.1 °F 36.5 °F 24.1 °F 45% 30.65 in - North 17.3 mph - N/A   Unknown
2:56 PM 44.1 °F 36.5 °F 25.0 °F 47% 30.62 in - NNE 17.3 mph 26.5 mph N/A   Unknown
3:56 PM 45.0 °F 37.1 °F 26.1 °F 48% 30.60 in - NNE 19.6 mph 27.6 mph N/A   Unknown
4:56 PM 46.0 °F 38.8 °F 26.1 °F 46% 30.58 in - NNE 18.4 mph - N/A   Unknown
5:56 PM 45.0 °F 37.6 °F 26.1 °F 48% 30.58 in - NNE 17.3 mph - N/A   Unknown
6:56 PM 43.0 °F 36.0 °F 26.1 °F 51% 30.58 in - NNE 13.8 mph - N/A   Unknown
7:56 PM 39.9 °F 31.4 °F 27.0 °F 60% 30.58 in - NE 16.1 mph - N/A   Unknown
8:56 PM 36.0 °F 27.5 °F 26.1 °F 67% 30.58 in - NE 12.7 mph - N/A   Unknown
9:56 PM 32.0 °F 23.6 °F 26.1 °F 79% 30.59 in - NE 10.4 mph - N/A   Unknown
10:56 PM 30.0 °F 22.4 °F 25.0 °F 82% 30.58 in - NNE 8.1 mph - N/A   Unknown
11:56 PM 28.9 °F 21.9 °F 24.1 °F 82% 30.57 in - NNE 6.9 mph - N/A   Unknown